When you browse on this site, cookies collect data to enhance your experience and personalize the content and advertising you see.
Visit our Privacy Policy to learn more. By continuing to use the site, you agree to this use of cookies and data.
  • In Hungary
  • List of Countries
  • For 7 days
  • Water Temperature
  • Satellite Maps
  • Weather Map
  • News
  • Weather Widgets
  • user-avatar
    Login

    Hourly Weather Mykolayivka

    Today, 20 July, Saturday

    Time Temperature Precipitation Wind Pressure Humidity
    00:00 +20°C° 0 mm 2 mps 762 mmHg 60%
    01:00 +20°C° 0 mm 2 mps 762 mmHg 61%
    02:00 +19°C° 0 mm 2 mps 762 mmHg 60%
    03:00 +19°C° 0 mm 2 mps 762 mmHg 60%
    04:00 +19°C° 0 mm 2 mps 762 mmHg 60%
    05:00 +19°C° 0 mm 2 mps 763 mmHg 60%
    06:00 +23°C° 0 mm 2 mps 763 mmHg 53%
    07:00 +26°C° 0 mm 2 mps 763 mmHg 45%
    08:00 +28°C° 0 mm 2 mps 763 mmHg 37%
    09:00 +30°C° 0 mm 2 mps 763 mmHg 33%
    10:00 +31°C° 0 mm 2 mps 763 mmHg 30%
    11:00 +32°C° 0 mm 2 mps 763 mmHg 26%
    12:00 +33°C° 0 mm 3 mps 763 mmHg 28%
    13:00 +33°C° 0 mm 4 mps 763 mmHg 30%
    14:00 +33°C° 0 mm 4 mps 763 mmHg 32%
    15:00 +32°C° 0 mm 4 mps 763 mmHg 35%
    16:00 +30°C° 0 mm 4 mps 763 mmHg 38%
    17:00 +29°C° 0 mm 4 mps 763 mmHg 42%
    18:00 +27°C° 0 mm 4 mps 763 mmHg 47%
    19:00 +26°C° 0 mm 3 mps 763 mmHg 52%
    20:00 +24°C° 0 mm 3 mps 763 mmHg 58%
    21:00 +23°C° 0 mm 2 mps 763 mmHg 58%
    22:00 +23°C° 0 mm 2 mps 763 mmHg 59%
    23:00 +22°C° 0 mm 1 mps 763 mmHg 60%

    Tomorrow, 21 July, Sunday

    Time Temperature Precipitation Wind Pressure Humidity
    00:00 +22°C° 0 mm 1 mps 763 mmHg 59%
    01:00 +20°C° 0 mm 2 mps 762 mmHg 59%
    02:00 +20°C° 0 mm 2 mps 762 mmHg 58%
    03:00 +20°C° 0 mm 2 mps 762 mmHg 58%
    04:00 +20°C° 0 mm 2 mps 762 mmHg 57%
    05:00 +20°C° 0 mm 3 mps 762 mmHg 56%
    06:00 +24°C° 0 mm 3 mps 762 mmHg 50%
    07:00 +26°C° 0 mm 3 mps 762 mmHg 44%
    08:00 +29°C° 0 mm 4 mps 762 mmHg 38%
    09:00 +30°C° 0 mm 4 mps 762 mmHg 34%
    10:00 +33°C° 0 mm 4 mps 762 mmHg 30%
    11:00 +34°C° 0 mm 4 mps 762 mmHg 26%
    12:00 +34°C° 0 mm 5 mps 762 mmHg 27%
    13:00 +34°C° 0 mm 5 mps 762 mmHg 28%
    14:00 +34°C° 0 mm 6 mps 761 mmHg 29%
    15:00 +34°C° 0 mm 6 mps 761 mmHg 29%
    16:00 +34°C° 0 mm 5 mps 762 mmHg 29%
    17:00 +33°C° 0 mm 5 mps 762 mmHg 29%
    18:00 +30°C° 0 mm 4 mps 762 mmHg 35%
    19:00 +28°C° 0 mm 3 mps 762 mmHg 41%
    20:00 +26°C° 0 mm 3 mps 762 mmHg 47%
    21:00 +25°C° 0 mm 2 mps 762 mmHg 49%
    22:00 +24°C° 0 mm 2 mps 762 mmHg 52%
    23:00 +23°C° 0 mm 2 mps 762 mmHg 55%

    Day after tomorrow, 22 July, Monday

    Time Temperature Precipitation Wind Pressure Humidity
    00:00 +23°C° 0 mm 1 mps 762 mmHg 55%
    01:00 +23°C° 0 mm 1 mps 762 mmHg 55%
    02:00 +22°C° 0 mm 1 mps 762 mmHg 55%
    03:00 +22°C° 0 mm 1 mps 762 mmHg 55%
    04:00 +22°C° 0 mm 1 mps 762 mmHg 54%
    05:00 +22°C° 0 mm 1 mps 762 mmHg 54%
    06:00 +25°C° 0 mm 1 mps 762 mmHg 48%
    07:00 +27°C° 0 mm 1 mps 762 mmHg 41%
    08:00 +28°C° 0 mm 0 mps 762 mmHg 35%
    09:00 +31°C° 0 mm 1 mps 762 mmHg 33%
    10:00 +32°C° 0 mm 2 mps 762 mmHg 31%
    11:00 +34°C° 0 mm 3 mps 762 mmHg 29%
    12:00 +34°C° 0 mm 4 mps 762 mmHg 30%
    13:00 +34°C° 0 mm 4 mps 761 mmHg 32%
    14:00 +34°C° 0 mm 5 mps 761 mmHg 33%
    15:00 +33°C° 0 mm 5 mps 761 mmHg 35%
    16:00 +33°C° 0 mm 5 mps 761 mmHg 36%
    17:00 +32°C° 0 mm 5 mps 760 mmHg 37%
    18:00 +29°C° 0 mm 4 mps 760 mmHg 45%
    19:00 +27°C° 0 mm 3 mps 760 mmHg 52%
    20:00 +25°C° 0 mm 3 mps 760 mmHg 60%
    21:00 +25°C° 0 mm 2 mps 760 mmHg 61%
    22:00 +24°C° 0 mm 2 mps 760 mmHg 62%
    23:00 +23°C° 0 mm 2 mps 760 mmHg 63%

    23 July, Tuesday

    Time Temperature Precipitation Wind Pressure Humidity
    00:00 +23°C° 0 mm 2 mps 760 mmHg 66%
    01:00 +23°C° 0 mm 2 mps 759 mmHg 69%
    02:00 +21°C° 0 mm 2 mps 759 mmHg 72%
    03:00 +21°C° 0 mm 2 mps 759 mmHg 73%
    04:00 +21°C° 0 mm 2 mps 758 mmHg 74%
    05:00 +21°C° 0 mm 2 mps 758 mmHg 75%
    06:00 +24°C° 0 mm 2 mps 758 mmHg 69%
    07:00 +26°C° 0 mm 3 mps 758 mmHg 63%
    08:00 +28°C° 0 mm 3 mps 758 mmHg 57%
    09:00 +28°C° 0.2 mm 4 mps 758 mmHg 57%
    10:00 +28°C° 0.2 mm 4 mps 758 mmHg 58%
    11:00 +28°C° 0.2 mm 5 mps 758 mmHg 58%
    12:00 +28°C° 0.1 mm 4 mps 758 mmHg 55%
    13:00 +28°C° 0.1 mm 3 mps 758 mmHg 53%
    14:00 +29°C° 0.1 mm 2 mps 758 mmHg 50%
    15:00 +28°C° 0.1 mm 3 mps 757 mmHg 54%
    16:00 +27°C° 0.1 mm 3 mps 757 mmHg 57%
    17:00 +27°C° 0.1 mm 4 mps 757 mmHg 61%
    18:00 +25°C° 0.2 mm 3 mps 757 mmHg 68%
    19:00 +24°C° 0.2 mm 3 mps 757 mmHg 75%
    20:00 +21°C° 0.2 mm 3 mps 757 mmHg 82%
    21:00 +21°C° 0.1 mm 2 mps 757 mmHg 83%
    22:00 +21°C° 0.1 mm 2 mps 757 mmHg 84%
    23:00 +21°C° 0.1 mm 1 mps 757 mmHg 84%

    24 July, Wednesday

    Time Temperature Precipitation Wind Pressure Humidity
    00:00 +21°C° 0 mm 1 mps 757 mmHg 85%
    01:00 +21°C° 0 mm 1 mps 757 mmHg 85%
    02:00 +21°C° 0 mm 1 mps 756 mmHg 85%
    03:00 +21°C° 0 mm 1 mps 756 mmHg 84%
    04:00 +20°C° 0 mm 2 mps 756 mmHg 84%
    05:00 +20°C° 0 mm 2 mps 756 mmHg 84%
    06:00 +23°C° 0 mm 2 mps 756 mmHg 75%
    07:00 +25°C° 0 mm 3 mps 756 mmHg 65%
    08:00 +26°C° 0 mm 3 mps 756 mmHg 56%
    09:00 +28°C° 0 mm 4 mps 756 mmHg 51%
    10:00 +29°C° 0 mm 4 mps 756 mmHg 45%
    11:00 +30°C° 0 mm 5 mps 757 mmHg 40%
    12:00 +30°C° 0 mm 6 mps 757 mmHg 40%
    13:00 +29°C° 0 mm 6 mps 757 mmHg 40%
    14:00 +29°C° 0 mm 6 mps 757 mmHg 41%
    15:00 +28°C° 0 mm 7 mps 756 mmHg 44%
    16:00 +27°C° 0 mm 7 mps 756 mmHg 48%
    17:00 +26°C° 0 mm 7 mps 756 mmHg 52%
    18:00 +24°C° 0 mm 6 mps 757 mmHg 60%
    19:00 +22°C° 0 mm 5 mps 757 mmHg 68%
    20:00 +21°C° 0 mm 3 mps 757 mmHg 76%
    21:00 +21°C° 0 mm 3 mps 757 mmHg 76%
    22:00 +21°C° 0 mm 2 mps 757 mmHg 77%
    23:00 +20°C° 0 mm 2 mps 757 mmHg 77%

    25 July, Thursday

    Time Temperature Precipitation Wind Pressure Humidity
    00:00 +20°C° 0.1 mm 2 mps 757 mmHg 79%
    01:00 +20°C° 0.1 mm 1 mps 757 mmHg 81%
    02:00 +20°C° 0.1 mm 1 mps 757 mmHg 83%
    03:00 +20°C° 0.1 mm 1 mps 756 mmHg 84%
    04:00 +20°C° 0.1 mm 1 mps 756 mmHg 84%
    05:00 +19°C° 0.1 mm 1 mps 756 mmHg 84%
    06:00 +21°C° 0.1 mm 1 mps 756 mmHg 76%
    07:00 +21°C° 0.1 mm 0 mps 757 mmHg 67%
    08:00 +23°C° 0.1 mm 0 mps 757 mmHg 59%
    09:00 +25°C° 0.1 mm 1 mps 757 mmHg 56%
    10:00 +26°C° 0.1 mm 2 mps 757 mmHg 53%
    11:00 +27°C° 0.1 mm 2 mps 757 mmHg 50%
    12:00 +27°C° 0.3 mm 3 mps 757 mmHg 50%
    13:00 +27°C° 0.3 mm 3 mps 757 mmHg 51%
    14:00 +27°C° 0.3 mm 4 mps 757 mmHg 51%
    15:00 +27°C° 0.1 mm 5 mps 757 mmHg 51%
    16:00 +28°C° 0.1 mm 5 mps 757 mmHg 51%
    17:00 +28°C° 0.1 mm 6 mps 757 mmHg 51%
    18:00 +26°C° 0.1 mm 5 mps 757 mmHg 57%
    19:00 +25°C° 0.1 mm 4 mps 758 mmHg 63%
    20:00 +24°C° 0.1 mm 3 mps 758 mmHg 69%
    21:00 +22°C° 0.2 mm 4 mps 758 mmHg 71%
    22:00 +22°C° 0.2 mm 4 mps 758 mmHg 73%
    23:00 +22°C° 0.2 mm 4 mps 758 mmHg 74%
    Show more